Weather History for KALS - June, 2013

Change the Weather History Date:

Saturday, June 8, 2013

  Actual Average Record
Temperature  
Mean Temperature 63 °F 58 °F  
Max Temperature 85 °F 77 °F 90 °F (2010)
Min Temperature 40 °F 39 °F 27 °F (1945)
Degree Days  
Heating Degree Days 2 7  
Month to date heating degree days 60 67  
Since 1 June heating degree days 60 67  
Since 1 July heating degree days 9001 8493  
Cooling Degree Days 0 0  
Month to date cooling degree days 0 0  
Year to date cooling degree days 0 0  
Since 1 June cooling degree days 0 0  
Growing Degree Days 12 (Base 50)    
Moisture  
Dew Point 33 °F    
Average Humidity 42    
Maximum Humidity 70    
Minimum Humidity 14    
Precipitation  
Precipitation 0.00 in 0.01 in 0.71 in (1979)
Month to date precipitation T 0.12  
Year to date precipitation 1.06 2.34  
Snow  
Snow 0.00 in 0.00 in 0.00 in (2002)
Month to date snowfall 0.0 0.0  
Since 1 June snowfall 0.0 0.0  
Since 1 July snowfall 21.1 27.6  
Snow Depth 0.00 in    
Sea Level Pressure  
Sea Level Pressure 29.82 in    
Wind  
Wind Speed 8 mph (NE)    
Max Wind Speed 23 mph    
Max Gust Speed 38 mph    
Visibility 10 miles    
Events      
T = Trace of Precipitation, MM = Missing Value Source: NWS Daily Summary

Daily Weather History Graph

Daily Weather History Graph

Search for Another Location

Airport or City:

Trip Planner

Search our weather history database for the weather conditions in past years. The results will help you decide how hot, cold, wet, or windy it might be!

Date:

Astronomy

Jun. 08, 2013 Rise Set
Actual Time 5:42 AM MDT 8:23 PM MDT
Civil Twilight 5:11 AM MDT 8:53 PM MDT
Nautical Twilight 4:32 AM MDT 9:32 PM MDT
Astronomical Twilight 3:49 AM MDT 10:15 PM MDT
Moon 5:51 AM MDT (6/8) 8:28 PM MDT (6/8)
Length of Visible Light 15h 42m
Length of Day
14h 40m
New Moon, 0% of the Moon is Illuminated
Jun 8
New Moon
Jun 16
First Quarter
Jun 23
Full
Jun 29
Last Quarter
Jul 8
New

Hourly Weather History & Observations

Time (MDT) Temp. Windchill Dew Point Humidity Pressure Visibility Wind Dir Wind Speed Gust Speed Precip Events Conditions
12:52 AM 45.0 °F 41.2 °F 35.1 °F 68% 29.85 in 10.0 mi SSE 6.9 mph - N/A   Clear
1:52 AM 42.1 °F 39.2 °F 33.1 °F 70% 29.86 in 10.0 mi South 4.6 mph - N/A   Scattered Clouds
2:52 AM 43.0 °F 39.5 °F 33.1 °F 68% 29.83 in 10.0 mi SSE 5.8 mph - N/A   Overcast
3:52 AM 45.0 °F 41.8 °F 35.1 °F 68% 29.82 in 10.0 mi East 5.8 mph - N/A   Scattered Clouds
4:52 AM 45.0 °F 41.2 °F 33.1 °F 63% 29.85 in 10.0 mi ENE 6.9 mph - N/A   Overcast
5:52 AM 43.0 °F 40.3 °F 33.1 °F 68% 29.86 in 10.0 mi East 4.6 mph - N/A   Clear
6:52 AM 42.1 °F 40.2 °F 32.0 °F 67% 29.88 in 10.0 mi Variable 3.5 mph - N/A   Clear
7:52 AM 46.0 °F 43.9 °F 36.0 °F 68% 29.86 in 10.0 mi South 4.6 mph - N/A   Partly Cloudy
8:52 AM 51.1 °F - 36.0 °F 56% 29.90 in 10.0 mi Calm Calm - N/A   Clear
9:52 AM 61.0 °F - 37.0 °F 41% 29.86 in 10.0 mi Calm Calm - N/A   Clear
10:52 AM 70.0 °F - 32.0 °F 25% 29.82 in 10.0 mi North 8.1 mph - N/A   Clear
11:52 AM 75.0 °F - 30.0 °F 19% 29.80 in 10.0 mi North 10.4 mph 17.3 mph N/A   Clear
12:52 PM 78.1 °F - 32.0 °F 19% 29.78 in 10.0 mi North 8.1 mph 18.4 mph N/A   Clear
1:52 PM 81.0 °F - 32.0 °F 17% 29.77 in 10.0 mi North 10.4 mph 19.6 mph N/A   Clear
2:52 PM 82.0 °F - 28.9 °F 14% 29.75 in 10.0 mi NW 13.8 mph 23.0 mph N/A   Clear
3:52 PM 81.0 °F - 28.0 °F 14% 29.73 in 10.0 mi WNW 9.2 mph 18.4 mph N/A   Clear
4:52 PM 80.1 °F - 30.9 °F 17% 29.72 in 10.0 mi West 11.5 mph - N/A   Partly Cloudy
5:52 PM 80.1 °F - 26.1 °F 14% 29.74 in 10.0 mi NNW 15.0 mph 23.0 mph N/A   Clear
6:52 PM 80.1 °F - 27.0 °F 14% 29.77 in 10.0 mi North 15.0 mph 19.6 mph N/A   Clear
7:52 PM 75.0 °F - 28.9 °F 18% 29.80 in 10.0 mi NNW 10.4 mph - N/A   Clear
8:52 PM 63.0 °F - 34.0 °F 34% 29.86 in 10.0 mi East 5.8 mph - N/A   Clear
9:52 PM 60.1 °F - 39.9 °F 47% 29.87 in 10.0 mi East 12.7 mph - N/A   Clear
10:52 PM 54.0 °F - 39.0 °F 57% 29.88 in 10.0 mi SE 4.6 mph - N/A   Clear
11:52 PM 51.1 °F - 37.9 °F 61% 29.88 in 10.0 mi SW 4.6 mph - N/A   Clear